MIDAS 5 DEB, 274

Orbit data source: Space-Track

MIDAS 5 DEB, 274 is space debris in LEO originally from a launch on Mon, 09 Apr 1962 UTC launched from the Air Force Western Test Range (AFWTR). Debris objects in space refer to the collection of defunct objects orbiting the Earth. Examples of debris include non-operational satellites, rocket bodies, and fragments generated from explosions, collisions, or faulty payload assembly.

Loading next visibility...
Identifier
274, 1962-010D
Orbit
LEO
Country
Flag of USUS
Related business
Manufacturer
Unknown
Mission
Spacecraft
Bus & Motor
Unknown
Mass
~10 kg wet, ~10 kg dry
Launch date (UTC)
1962-04-09 (64 years ago)
Launch vehicle
Unknown
Launch site
Air Force Western Test Range (AFWTR)
Object type
Payload
Rocket body
Debris
Shape & HBR
Unknown shape, 0.5 m
Radar Cross Section
Medium (>0.1 m² and <1 m²)

Expand to show TLE details & history
Last TLE update: 14 hours ago

TLE from 14 hours ago
0 MIDAS 5 DEB
1   274U 62010D   25296.21089442 -.00000080  00000-0 -17358-1 0  9991
2   274  86.6784   7.8759 0350764  99.0329 265.0434  9.39379504178534
Epoch: 2025-10-23T05:03Z
TLE epoch observation values (Epoch: 2025-10-23T05:03:41.277Z)
Latitude
-0.00001°
Longitude
-99.9195°
Altitude
3,152.452 km
Speed
6.454 km/s
True Right ascension
00h 31m 30s
True Declination
0° 00' 00"
Sunlit
Object was in full shadow at epoch
Visualization orbit readout
Latitude
Unknown
Longitude
Unknown
Altitude
Unknown
Speed
Unknown
Apparent Right ascension
Unknown
Apparent Declination
Unknown
Sunlit
N/A
Visualization observer readout
Local Sidereal Time
14:12:14
Azimuth
Unknown
Elevation
Unknown
Doppler factor
Unknown
Orbital elements
Apogee altitude
3,440.287 km
Perigee altitude
2,774.838 km
Semi-major axis
9,485.7 km
Eccentricity
0.03508
Inclination
86.6784°
RAAN
7.8759°
Arg. of periapsis
99.0329°
True anomaly
261.0573°
Mean anomaly
265.0434°
Eccentric anomaly
263.04844°
Mean motion
2.3493 °/min
Orbital period
153.24 mins
BSTAR
-0.017358
Loading maneuver chart data...
Computing Atmospheric mass density...
Loading historical data...
Loading historical data...
Loading historical data...
Loading historical data...
Loading historical data...
Loading historical data...
Loading historical data...

Documentation

Showing up to 5 results
|